Location: Blégiers
(44.1792°N, 6.4182°E)
Time: 22:58:34
(UTC+00:00)

Daily predictions for brighter satellites

Satellite Brightness Start Highest point End
(mag) Time Altitude Azimuth Time Altitude Azimuth Time Altitude Azimuth
Cosmos 2279 Rocket 4.1 16:16:25 10° S 16:22:28 60° E 16:28:36 10° NNE
Cosmos 1602 Rocket 4.4 16:20:34 10° NNE 16:24:26 29° ENE 16:28:15 10° SE
Cosmos 1570 Rocket 4.0 16:22:29 10° NNW 16:27:52 76° ENE 16:33:09 10° SSE
Cosmos 1092 Rocket 4.3 16:22:31 10° NNW 16:28:39 73° W 16:34:44 10° S
SMAP 3.4 16:24:51 10° SE 16:29:14 43° ENE 16:33:39 10° N
Cosmos 1656 3.7 16:24:36 10° SSW 16:30:11 77° ESE 16:35:52 10° NNE
Cosmos 836 Rocket 4.5 16:25:53 10° NNW 16:31:08 72° ENE 16:36:23 10° SSE
YAOGAN 1 4.4 16:32:24 10° ENE 16:33:30 11° ENE 16:34:36 10° NE
Cosmos 2228 3.4 16:29:38 10° SSW 16:33:51 68° W 16:38:06 10° N
UNK 4.0 16:29:50 10° NNE 16:34:19 50° E 16:38:43 10° S
NOSS 2-2 (C) 4.4 16:31:29 10° WSW 16:34:20 27° NW 16:36:58 10° NNE
Landsat 7 4.2 16:30:28 10° SE 16:34:45 38° ENE 16:39:03 10° N
SAR-Lupe-4 4.4 16:32:01 10° SE 16:35:06 28° ENE 16:38:12 10° N
Cosmos 1486 Rocket 4.1 16:30:10 10° S 16:35:16 61° ESE 16:40:27 10° NNE
Cosmos 1867 4.3 16:32:01 10° NNW 16:36:52 31° NE 16:41:40 10° ESE
Cosmos 2297 Rocket 2.3 16:35:42 10° NNW 16:41:17 57° ENE 16:46:50 10° SE
USA 290 2.7 16:38:15 10° N 16:41:18 37° ENE 16:44:21 10° SE
USA 215 4.4 16:36:02 10° NE 16:41:28 29° N 16:46:55 10° WNW
Cosmos 1782 2.5 16:40:42 10° S 16:44:18 87° E 16:47:55 10° N
Cosmos 773 Rocket 3.9 16:39:26 10° NNW 16:44:41 75° ENE 16:49:55 10° SSE
ATLAS CENTAUR R/B 0.5 16:44:49 10° NNW 16:48:03 71° NE 16:51:10 10° SE
CZ-4C R/B 3.1 16:42:16 10° NNW 16:49:03 53° NE 16:57:24 10° ESE
Cosmos 1607 4.0 16:44:12 10° NNW 16:50:22 61° NE 16:56:35 10° SE
CZ-2D R/B 3.2 16:47:42 10° SE 16:50:38 38° ENE 16:53:34 10° N
Cosmos 1733 1.6 16:49:30 10° NNW 16:51:04 55° W 16:52:37 10° S
IRS-P3 4.4 16:48:36 10° SE 16:53:34 42° ENE 16:58:34 10° N
Lacrosse 4 Rocket 3.8 16:51:51 10° W 16:54:11 15° NW 16:56:31 10° N
ARIANE 5 R/B 2.5 16:50:18 10° SSE 16:55:16 61° ENE 17:00:19 10° N
NOSS 2-3 (E) 4.4 16:54:31 10° S 16:57:31 23° ESE 16:59:21 16° ENE
Cosmos 1825 Rocket 4.2 16:54:19 10° N 16:58:15 32° ENE 17:02:07 10° SE
Cosmos 1758 Rocket 3.8 16:56:14 10° NNW 17:00:32 71° W 17:04:46 10° S
Cosmos 2098 Rocket 3.1 16:56:45 10° S 17:00:40 79° W 17:05:21 10° N
Cosmos 2266 Rocket 3.9 16:54:41 10° N 17:00:49 63° E 17:06:47 10° SSE
Cosmos 2208 Rocket 4.2 16:59:11 10° NNW 17:04:20 74° WSW 17:09:30 10° SSE
SPOT 1/Viking Rocket 4.0 17:00:34 10° SE 17:05:17 37° ENE 17:10:02 10° N
Cosmos 1980 Rocket 3.3 17:01:07 10° SSE 17:05:28 23° E 17:08:00 17° ENE
Cosmos 2151 2.8 17:01:45 10° N 17:05:55 77° E 17:10:04 10° SSE
Cosmos 1743 2.4 17:03:16 10° NNW 17:06:32 76° W 17:09:45 10° S
Cosmos 2058 Rocket 4.3 17:11:12 10° SE 17:14:31 21° E 17:14:42 21° E
SL-16 R/B 3.7 17:11:14 10° N 17:17:02 42° WNW 17:22:47 10° SW
NOSS 3-2 (C) 3.1 17:13:04 10° SW 17:18:01 81° NW 17:23:02 14° NE
NOSS 3-2 (A) 4.3 17:13:44 10° WSW 17:18:28 37° NW 17:24:05 10° NNE
Cosmos 2263 Rocket 2.9 17:14:30 10° N 17:19:31 31° NE 17:23:09 16° ESE
CZ-4 R/B 4.5 17:18:21 10° SE 17:22:08 47° ENE 17:25:56 10° N
MOS 1 Rocket 3.3 17:17:39 10° SSE 17:22:28 79° ENE 17:27:37 10° N
BREEZE M DEB (TANK) 1.8 17:22:42 10° WSW 17:25:03 55° NNW 17:25:20 48° NNE
Cosmos 783 Rocket 4.4 17:20:08 10° NNW 17:25:28 79° ENE 17:30:45 10° SSE
AQUARIUS 4.1 17:21:07 10° SSE 17:25:31 90° W 17:29:58 10° NNW
Cosmos 1933 3.1 17:23:00 10° S 17:26:50 87° ESE 17:30:41 10° N
Cosmos 1076 Rocket 3.8 17:23:32 10° N 17:27:39 42° ENE 17:31:44 10° SSE
SJ-12 4.1 17:24:43 10° S 17:28:28 66° WSW 17:32:15 10° NNW
Cosmos 1606 Rocket 3.5 17:25:53 10° S 17:30:17 84° E 17:34:44 10° N
Cosmos 2084 Rocket 3.2 17:27:52 10° NW 17:32:06 79° NE 17:36:12 11° SE
Cosmos 2227 Rocket 2.1 17:26:52 10° NNW 17:32:30 63° ENE 17:38:04 10° SE
BlueWalker 3 3.5 17:30:10 10° WNW 17:33:27 32° SW 17:36:43 10° SSE
Cosmos 1900 4.2 17:29:49 10° NNW 17:34:53 81° ENE 17:39:50 10° SE
PSLV R/B 4.1 17:31:36 10° SE 17:36:05 32° NE 17:38:59 10° N
CZ-2D R/B 3.5 17:31:55 10° SSE 17:36:00 52° ENE 17:40:04 10° N
SL-19 R/B 4.4 17:34:37 10° SE 17:39:42 47° ENE 17:45:04 10° N
Resurs 1-3 3.7 17:35:55 10° SE 17:40:01 46° ENE 17:44:09 10° N
COSMO-SKYMED 1 2.7 17:39:14 38° ENE 17:40:07 44° E 17:44:04 10° S
BREEZE-M DEB (TANK) 4.0 17:40:11 10° WNW 17:43:47 57° NNE 17:48:33 27° E
Meteor 2-20 4.4 17:39:45 10° S 17:45:50 68° E 17:51:57 10° NNE
Cosmos 1697 Rocket 2.8 17:40:49 10° SSW 17:46:24 77° WNW 17:50:44 18° NNE
Cosmos 1354 Rocket 4.3 17:43:56 10° SSW 17:49:10 68° WNW 17:53:34 15° NNE
Lacrosse 5 rocket 3.5 17:48:08 10° NW 17:49:40 12° N 17:49:58 12° N
Cosmos 1461 4.0 17:48:54 10° WSW 17:52:30 35° NW 17:54:18 23° N
Spot 4 Rocket 3.9 17:48:39 10° SSE 17:53:43 72° ENE 17:58:50 10° N
IRAS Rocket 4.1 17:49:32 10° SSE 17:54:56 62° ENE 18:00:20 10° N
Cosmos 1726 Rocket 3.9 17:50:55 10° SSW 17:55:33 73° W 17:59:49 12° N
Cosmos 1655 Rocket 4.0 17:55:52 10° N 18:02:08 84° W 18:08:20 10° S
Gbstr 26 Del rocket 2.7 17:58:30 10° WSW 18:02:28 65° NNW 18:02:38 64° N
SKYMED 2 3.8 17:59:35 19° N 18:02:38 68° WNW 18:06:56 10° SSW
Cosmos 1898 Rocket 3.6 17:58:33 10° S 18:03:17 48° ESE 18:03:17 48° ESE
Meteor 2-20 Rocket 4.3 18:01:43 10° S 18:07:58 71° E 18:12:30 19° NNE
YAOGAN 1 2.5 18:04:26 10° SSE 18:08:41 83° W 18:12:58 10° NNW
Meteor 2-10 4.0 18:03:58 10° N 18:09:20 76° E 18:14:52 10° SSE
NOSS 2-3 (C) 3.6 18:09:54 10° SW 18:12:46 55° WSW 18:12:46 55° WSW
Meteor 1-26 Rocket 3.9 18:11:36 10° S 18:17:01 75° E 18:18:03 57° NNE
USA 238 DEB 3.3 18:12:00 10° SSW 18:18:02 84° SE 18:19:57 49° NE
USA 238 3.3 18:12:06 10° SSW 18:18:08 83° SE 18:20:01 49° NE
Cosmos 2082 4.3 18:12:58 10° NNW 18:17:03 39° NNE 18:17:03 39° NNE
Cosmos 1867 4.4 18:15:24 10° NW 18:20:39 50° WSW 18:25:52 10° SSE
USA 215 3.9 18:22:49 36° NNE 18:23:23 37° NNE 18:29:16 10° NW
Cosmos 1953 Rocket 4.4 18:20:54 10° NNW 18:25:12 50° W 18:29:29 10° SSW
Cosmos 1937 Rocket 4.3 18:20:30 10° S 18:23:43 36° SSE 18:23:43 36° SSE
Cosmos 372 Rocket 3.8 18:20:53 10° SSW 18:26:03 87° WNW 18:26:26 77° N
Cosmos-2242 3.6 18:21:52 10° SSW 18:25:05 51° SSW 18:25:05 51° SSW
Aureole 1 Rocket 3.3 18:22:58 10° SSW 18:27:09 75° WNW 18:27:17 74° NW
CZ-4C R/B 4.0 18:30:31 10° NW 18:37:33 46° WSW 18:45:52 10° S
NOAA 6 4.3 18:33:56 10° S 18:39:00 66° WSW 18:44:06 10° NNW
BREEZE-M DEB (TANK) 4.2 18:34:17 10° SW 18:40:13 45° S 18:40:13 45° S
Cosmos 2219 3.4 18:36:47 10° NNW 18:41:35 63° NNW 18:41:35 63° NNW
Cosmos 1980 Rocket 2.7 18:43:28 10° SW 18:49:01 55° WNW 18:49:48 51° NNW
Cosmos 2058 Rocket 4.4 18:47:56 10° SW 18:51:55 37° W 18:51:55 37° W
Cosmos 2369 4.3 18:51:28 10° SSW 18:55:44 52° SW 18:55:44 52° SW
Cosmos 2263 Rocket 3.1 18:58:12 10° NW 19:03:35 45° WSW 19:04:58 37° SW
Cosmos 1553 Rocket 4.5 18:59:06 10° SSW 19:05:06 56° WNW 19:06:49 43° NNW
